Location: Härggis
(46.9540°N, 8.4897°E)
Time: 22:10:21
(UTC+00:00)

SL-16 R/B - Pass Details

Date: 30 September 2022
Orbit: 985 x 1007 km, 99.6° (Epoch: 05 December)

Event Time Altitude Azimuth Distance (km) Brightness Sun altitude
Exits shadow 23:45:27 18° 33° (NNE) 2,235 4.8 -45.7°
Drops below altitude 10° 23:48:03 10° 10° (N) 2,775 5.4 -45.6°
Sets 23:51:10 0° 354° (N) 3,733 6.2 -45.5°
